Location: Peterborough
(44.3091°N, 78.3197°W)
Time: 00:31:30
(UTC-04:00)

Vanguard 2 Rocket - Pass Details

Date: 31 March 2023
Orbit: 554 x 3314 km, 32.9° (Epoch: 02 June)

Event Time Altitude Azimuth Distance (km) Brightness Sun altitude
Rises 02:26:47 0° 259° (W) 5,386 - -39.2°
Reaches altitude 10° 02:34:10 10° 231° (SW) 5,087 - -38.7°
Maximum altitude 02:38:13 12° 215° (SW) 5,277 - -38.3°
Drops below altitude 10° 02:42:40 10° 199° (SSW) 5,706 - -38.0°
Sets 02:53:09 0° 174° (S) 7,183 - -37.1°
